Flag for Slovakia Weather past 2 weeks in Bratislava, Slovakia

48 °F

Light rain. Broken clouds.

Feels Like: 40 °F
Forecast: 46 / 53 °F
Wind: 25 mph from Northwest

Location: Bratislava Ivanka

Current Time: Nov 30, 2015 at 3:20:30 PM

Latest Report: Nov 30, 2015 at 3:00 PM

Visibility: N/A

Pressure: 30.04 "Hg

Humidity: 82%

Dew point: 43 °F

Location of BratislavaLocation

Historic Weather in Bratislava — Graph


Bratislava temperature yesterday

Maximum temperature yesterday: 50 °F (at 2:00 PM)
Minimum temperature yesterday: 37 °F (at 6:00 AM)
Average temperature yesterday: 44 °F

Past Weeks' High & Low Weather Summary

High66 °F (Nov 18, 10:00 AM)100% (Nov 15, 5:30 PM)30.33 "Hg (Nov 15, 5:30 PM)
Low23 °F (Nov 25, 4:00 AM)42% (Nov 18, 5:00 PM)29.36 "Hg (Nov 20, 11:00 PM)
Average44 °F73%29.92 "Hg
* Reported Nov 15 2:00 PM — Nov 30 2:00 PM, Bratislava, Weather by CustomWeather, © 2015

Note: Actual official high and low records may vary slightly from our data, if they occured in-between our weather recording intervals... More about our weather records


Bratislava weather history for previous 24 hours

Time TempWeatherWind HumidityBarometerVisibility
2:00 PM
Mon, Nov 30
48 °FLight rain. Broken clouds.13 mph87%30.07 "HgN/A
1:30 PM48 °FLight rain. Partly sunny.15 mph87%30.07 "HgN/A
1:00 PM50 °FLight rain. Broken clouds.15 mph88%30.04 "HgN/A
12:30 PM50 °FLight rain. Broken clouds.18 mph88%30.07 "HgN/A
12:00 PM54 °FLight rain. Broken clouds.29 mph67%30.04 "HgN/A
11:30 AM55 °FLight rain. Broken clouds.36 mph59%30.01 "HgN/A
11:00 AM55 °FScattered showers. Scattered clouds.36 mph55%30.01 "HgN/A
10:30 AM55 °FPassing clouds.31 mph55%30.01 "HgN/A
10:00 AM55 °FPassing clouds.31 mph55%30.01 "HgN/A
9:30 AM55 °FPassing clouds.31 mph55%30.01 "HgN/A
9:00 AM54 °FPassing clouds.29 mph58%29.98 "HgN/A
8:00 AM54 °FPartly sunny.29 mph54%29.98 "HgN/A
7:30 AM55 °FPartly sunny.31 mph51%29.98 "HgN/A
7:00 AM55 °FClear.33 mph51%29.98 "Hg10 mi
6:30 AM55 °FClear.32 mph51%29.95 "Hg10 mi
6:00 AM54 °FClear.30 mph54%29.95 "Hg10 mi
5:30 AM54 °FClear.30 mph54%29.95 "Hg10 mi
4:30 AM54 °FPassing clouds.30 mph54%29.95 "HgN/A
4:00 AM54 °FPassing clouds.30 mph58%29.98 "HgN/A
3:30 AM54 °FPassing clouds.28 mph54%29.98 "HgN/A
3:00 AM54 °FPassing clouds.26 mph58%29.98 "HgN/A
2:30 AM54 °FPassing clouds.28 mph58%29.98 "HgN/A
1:30 AM52 °FClear.25 mph62%29.98 "Hg10 mi
1:00 AM52 °FPassing clouds.18 mph62%29.98 "HgN/A
12:30 AM52 °FPassing clouds.18 mph62%29.98 "HgN/A
12:00 AM52 °FPassing clouds.15 mph62%30.01 "HgN/A
11:30 PM
Sun, Nov 29
50 °FPartly cloudy.16 mph67%30.01 "HgN/A
11:00 PM50 °FPartly cloudy.15 mph67%30.01 "HgN/A
10:30 PM48 °FLight rain. Passing clouds.14 mph71%30.04 "HgN/A
10:00 PM48 °FLight rain. Partly cloudy.9 mph71%30.04 "HgN/A
9:30 PM48 °FClear.10 mph71%30.04 "Hg10 mi
9:00 PM46 °FPassing clouds.8 mph76%30.07 "HgN/A
8:30 PM45 °FPassing clouds.6 mph81%30.07 "HgN/A
8:00 PM46 °FLight rain. Partly cloudy.8 mph76%30.07 "HgN/A
7:30 PM45 °FLight rain. Partly cloudy.6 mph81%30.07 "HgN/A
7:00 PM45 °FLight rain. Passing clouds.6 mph81%30.07 "HgN/A
6:30 PM45 °FLight rain. Passing clouds.8 mph81%30.07 "HgN/A
6:00 PM46 °FLight rain. Partly cloudy.10 mph71%30.07 "HgN/A
5:30 PM46 °FLight rain. Partly cloudy.12 mph71%30.07 "HgN/A
5:00 PM46 °FLight rain. Passing clouds.13 mph66%30.07 "HgN/A
4:30 PM46 °FLight rain. Passing clouds.16 mph66%30.04 "HgN/A
4:00 PM48 °FLight rain. Partly cloudy.13 mph58%30.07 "HgN/A
3:30 PM48 °FPartly sunny.14 mph54%30.07 "HgN/A
3:00 PM48 °FBroken clouds.15 mph54%30.07 "HgN/A
Weather by CustomWeather, © 2015

See weather overviewHow to use our weather pages